Time,TemperatureF,DewpointF,PressureIn,WindDirection,WindDirectionDegrees,WindSpeedMPH,WindSpeedGustMPH,Humidity,HourlyPrecipIn,Conditions,Clouds,dailyrainin,SoftwareType,DateUTC
2013-04-14 00:00:00,47.0,45.0,29.84,West,265,0.0,0.0,94,0.00,,,0.00,,2013-04-14 07:00:00,
2013-04-14 00:10:00,47.1,45.0,29.84,West,265,1.0,1.0,94,0.00,,,0.00,,2013-04-14 07:10:00,
2013-04-14 00:20:00,46.5,45.0,29.84,SSW,195,4.0,5.0,94,0.00,,,0.00,,2013-04-14 07:20:00,
2013-04-14 00:30:00,46.3,45.0,29.84,SSE,150,4.0,4.0,95,0.00,,,0.00,,2013-04-14 07:30:00,
2013-04-14 00:40:00,46.4,45.0,29.84,SSE,150,1.0,2.0,95,0.00,,,0.00,,2013-04-14 07:40:00,
2013-04-14 00:50:00,46.4,45.0,29.84,SSE,150,2.0,2.0,95,0.00,,,0.00,,2013-04-14 07:50:00,
2013-04-14 01:00:00,46.5,45.0,29.84,SSE,159,0.0,1.0,95,0.00,,,0.00,,2013-04-14 08:00:00,
2013-04-14 01:10:00,46.2,45.0,29.84,SSE,163,0.0,0.0,95,0.00,,,0.00,,2013-04-14 08:10:00,
2013-04-14 01:20:00,46.3,45.0,29.84,SSE,161,0.0,0.0,96,0.00,,,0.00,,2013-04-14 08:20:00,
2013-04-14 01:30:00,46.3,45.0,29.84,South,180,0.0,1.0,96,0.00,,,0.00,,2013-04-14 08:30:00,
2013-04-14 01:40:00,46.3,45.0,29.83,SSE,159,3.0,4.0,96,0.00,,,0.00,,2013-04-14 08:40:00,
2013-04-14 01:50:00,46.3,45.0,29.83,SSE,163,2.0,3.0,96,0.00,,,0.00,,2013-04-14 08:50:00,
2013-04-14 02:00:00,46.2,45.0,29.83,SSE,163,3.0,3.0,96,0.00,,,0.00,,2013-04-14 09:00:00,
2013-04-14 02:10:00,46.1,45.0,29.83,SSE,163,0.0,0.0,96,0.00,,,0.00,,2013-04-14 09:10:00,
2013-04-14 02:20:00,46.1,45.0,29.83,SSE,163,0.0,0.0,96,0.00,,,0.00,,2013-04-14 09:20:00,
2013-04-14 02:30:00,46.1,45.0,29.82,SSE,163,2.0,2.0,96,0.00,,,0.00,,2013-04-14 09:30:00,
2013-04-14 02:40:00,46.1,45.0,29.82,SSE,165,2.0,2.0,96,0.00,,,0.00,,2013-04-14 09:40:00,
2013-04-14 02:50:00,46.1,45.0,29.82,SSW,193,4.0,4.0,96,0.00,,,0.00,,2013-04-14 09:50:00,
2013-04-14 03:00:00,46.0,45.0,29.82,SSW,192,0.0,0.0,96,0.00,,,0.00,,2013-04-14 10:00:00,
2013-04-14 03:10:00,45.8,45.0,29.82,SSW,192,0.0,0.0,96,0.00,,,0.00,,2013-04-14 10:10:00,
2013-04-14 03:20:00,45.6,45.0,29.82,SSW,192,0.0,0.0,96,0.00,,,0.00,,2013-04-14 10:20:00,
2013-04-14 03:30:00,45.5,44.0,29.82,SSW,192,1.0,1.0,96,0.00,,,0.00,,2013-04-14 10:30:00,
2013-04-14 03:40:00,45.2,44.0,29.82,SSW,192,0.0,1.0,96,0.00,,,0.00,,2013-04-14 10:40:00,
2013-04-14 03:50:00,44.8,44.0,29.82,SSW,192,0.0,1.0,96,0.00,,,0.00,,2013-04-14 10:50:00,
2013-04-14 04:00:00,44.5,43.0,29.82,SSW,192,0.0,0.0,96,0.00,,,0.00,,2013-04-14 11:00:00,
2013-04-14 04:10:00,44.1,43.0,29.82,SSW,192,0.0,0.0,97,0.00,,,0.00,,2013-04-14 11:10:00,
2013-04-14 04:20:00,43.7,43.0,29.82,SSW,192,1.0,2.0,97,0.00,,,0.00,,2013-04-14 11:20:00,
2013-04-14 04:30:00,43.6,43.0,29.82,SSW,192,0.0,3.0,97,0.00,,,0.00,,2013-04-14 11:30:00,
2013-04-14 04:40:00,43.6,43.0,29.82,South,188,3.0,4.0,97,0.00,,,0.00,,2013-04-14 11:40:00,
2013-04-14 04:50:00,43.7,43.0,29.82,South,189,0.0,0.0,97,0.00,,,0.00,,2013-04-14 11:50:00,
2013-04-14 05:00:00,43.3,43.0,29.82,South,188,1.0,1.0,97,0.00,,,0.00,,2013-04-14 12:00:00,
2013-04-14 05:10:00,42.9,42.0,29.82,South,188,3.0,3.0,97,0.00,,,0.00,,2013-04-14 12:10:00,
2013-04-14 05:20:00,42.8,42.0,29.82,South,188,2.0,2.0,97,0.00,,,0.00,,2013-04-14 12:20:00,
2013-04-14 05:30:00,43.2,43.0,29.82,South,189,0.0,1.0,98,0.00,,,0.00,,2013-04-14 12:30:00,
2013-04-14 05:40:00,43.3,43.0,29.82,South,189,0.0,0.0,98,0.00,,,0.00,,2013-04-14 12:40:00,
2013-04-14 05:50:00,43.2,43.0,29.82,South,189,0.0,1.0,98,0.00,,,0.00,,2013-04-14 12:50:00,
2013-04-14 06:00:00,43.3,43.0,29.82,South,189,1.0,1.0,98,0.00,,,0.00,,2013-04-14 13:00:00,
2013-04-14 06:10:00,43.3,43.0,29.82,South,190,1.0,2.0,98,0.00,,,0.00,,2013-04-14 13:10:00,
2013-04-14 06:20:00,42.7,42.0,29.82,South,190,1.0,1.0,97,0.00,,,0.00,,2013-04-14 13:20:00,
2013-04-14 06:30:00,43.6,43.0,29.83,South,190,1.0,1.0,98,0.00,,,0.00,,2013-04-14 13:30:00,
2013-04-14 06:40:00,43.9,43.0,29.83,South,190,0.0,0.0,98,0.00,,,0.00,,2013-04-14 13:40:00,
2013-04-14 06:50:00,44.2,44.0,29.83,South,190,0.0,1.0,98,0.00,,,0.00,,2013-04-14 13:50:00,
2013-04-14 07:00:00,44.4,44.0,29.83,South,190,0.0,0.0,98,0.00,,,0.00,,2013-04-14 14:00:00,
2013-04-14 07:10:00,44.8,44.0,29.83,South,190,0.0,0.0,98,0.00,,,0.00,,2013-04-14 14:10:00,
2013-04-14 07:20:00,45.1,45.0,29.83,South,191,4.0,4.0,98,0.00,,,0.00,,2013-04-14 14:20:00,
2013-04-14 07:30:00,45.8,45.0,29.84,South,191,0.0,1.0,98,0.00,,,0.00,,2013-04-14 14:30:00,
2013-04-14 07:40:00,45.8,45.0,29.84,South,191,0.0,0.0,98,0.00,,,0.00,,2013-04-14 14:40:00,
2013-04-14 07:50:00,46.9,46.0,29.85,South,190,0.0,0.0,98,0.00,,,0.00,,2013-04-14 14:50:00,
2013-04-14 08:00:00,47.8,47.0,29.85,South,191,1.0,2.0,98,0.00,,,0.00,,2013-04-14 15:00:00,
2013-04-14 08:10:00,47.2,46.0,29.85,South,191,2.0,2.0,97,0.00,,,0.00,,2013-04-14 15:10:00,
2013-04-14 08:20:00,47.5,47.0,29.85,South,184,0.0,0.0,98,0.00,,,0.00,,2013-04-14 15:20:00,
2013-04-14 08:30:00,48.6,48.0,29.85,West,261,0.0,0.0,98,0.00,,,0.00,,2013-04-14 15:30:00,
2013-04-14 08:40:00,49.3,49.0,29.85,South,175,0.0,0.0,98,0.00,,,0.00,,2013-04-14 15:40:00,
2013-04-14 08:50:00,49.6,49.0,29.85,South,175,0.0,0.0,97,0.00,,,0.00,,2013-04-14 15:50:00,
2013-04-14 09:00:00,50.7,50.0,29.85,SSE,168,1.0,4.0,98,0.00,,,0.00,,2013-04-14 16:00:00,
2013-04-14 09:10:00,50.7,50.0,29.85,SE,138,5.0,5.0,97,0.00,,,0.00,,2013-04-14 16:10:00,
2013-04-14 09:20:00,50.9,50.0,29.85,SSE,157,5.0,5.0,95,0.00,,,0.00,,2013-04-14 16:20:00,
2013-04-14 09:30:00,51.5,50.0,29.85,SSW,199,0.0,3.0,94,0.00,,,0.00,,2013-04-14 16:30:00,
2013-04-14 09:40:00,52.1,50.0,29.85,South,188,3.0,7.0,92,0.00,,,0.00,,2013-04-14 16:40:00,
2013-04-14 09:50:00,52.8,50.0,29.85,SSW,213,5.0,6.0,89,0.00,,,0.00,,2013-04-14 16:50:00,
2013-04-14 10:00:00,53.2,49.0,29.85,SW,215,6.0,6.0,87,0.00,,,0.00,,2013-04-14 17:00:00,
2013-04-14 10:10:00,53.9,50.0,29.85,SSW,194,4.0,7.0,85,0.00,,,0.00,,2013-04-14 17:10:00,
2013-04-14 10:20:00,55.2,50.0,29.85,SSW,213,4.0,5.0,83,0.00,,,0.00,,2013-04-14 17:20:00,
2013-04-14 10:30:00,55.7,50.0,29.86,SSW,213,3.0,4.0,82,0.00,,,0.00,,2013-04-14 17:30:00,
2013-04-14 10:40:00,56.4,51.0,29.86,WSW,249,0.0,0.0,81,0.00,,,0.00,,2013-04-14 17:40:00,
2013-04-14 10:50:00,57.8,51.0,29.86,WNW,300,4.0,4.0,79,0.00,,,0.00,,2013-04-14 17:50:00,
2013-04-14 11:00:00,59.2,52.0,29.85,NNW,327,0.0,5.0,77,0.00,,,0.00,,2013-04-14 18:00:00,
2013-04-14 11:10:00,59.6,51.0,29.85,NW,321,2.0,5.0,74,0.00,,,0.00,,2013-04-14 18:10:00,
2013-04-14 11:20:00,58.8,51.0,29.85,West,273,6.0,6.0,75,0.00,,,0.00,,2013-04-14 18:20:00,
2013-04-14 11:30:00,58.7,50.0,29.86,West,281,6.0,8.0,72,0.00,,,0.00,,2013-04-14 18:30:00,
2013-04-14 11:40:00,56.6,48.0,29.86,West,272,9.0,11.0,73,0.00,,,0.01,,2013-04-14 18:40:00,
2013-04-14 11:50:00,55.9,47.0,29.86,WNW,288,11.0,13.0,72,0.00,,,0.01,,2013-04-14 18:50:00,
2013-04-14 12:00:00,55.2,47.0,29.86,West,279,11.0,14.0,73,0.00,,,0.01,,2013-04-14 19:00:00,
2013-04-14 12:10:00,54.7,47.0,29.85,WNW,287,12.0,14.0,76,0.00,,,0.01,,2013-04-14 19:10:00,
2013-04-14 12:20:00,54.9,48.0,29.85,NW,311,6.0,9.0,78,0.00,,,0.01,,2013-04-14 19:20:00,
2013-04-14 12:30:00,56.1,49.0,29.85,West,276,7.0,11.0,78,0.00,,,0.01,,2013-04-14 19:30:00,
2013-04-14 12:40:00,57.4,50.0,29.85,NW,308,7.0,9.0,77,0.00,,,0.01,,2013-04-14 19:40:00,
2013-04-14 12:50:00,57.4,49.0,29.85,West,267,10.0,12.0,73,0.00,,,0.01,,2013-04-14 19:50:00,
2013-04-14 13:00:00,58.2,48.0,29.84,WSW,252,9.0,11.0,70,0.00,,,0.01,,2013-04-14 20:00:00,
2013-04-14 13:10:00,58.3,48.0,29.84,WNW,301,6.0,11.0,69,0.00,,,0.01,,2013-04-14 20:10:00,
2013-04-14 13:20:00,56.2,48.0,29.84,West,268,12.0,14.0,74,0.00,,,0.01,,2013-04-14 20:20:00,
2013-04-14 13:30:00,55.9,48.0,29.84,WNW,296,7.0,9.0,76,0.00,,,0.01,,2013-04-14 20:30:00,
2013-04-14 13:40:00,55.1,48.0,29.84,West,278,7.0,11.0,76,0.00,,,0.01,,2013-04-14 20:40:00,
2013-04-14 13:50:00,55.0,48.0,29.84,NW,317,13.0,13.0,78,0.00,,,0.01,,2013-04-14 20:50:00,
2013-04-14 14:00:00,56.4,48.0,29.83,NW,312,13.0,13.0,74,0.00,,,0.01,,2013-04-14 21:00:00,
2013-04-14 14:10:00,57.9,49.0,29.83,NW,306,7.0,8.0,73,0.00,,,0.01,,2013-04-14 21:10:00,
2013-04-14 14:20:00,60.0,50.0,29.82,NNW,342,3.0,5.0,70,0.00,,,0.01,,2013-04-14 21:20:00,
2013-04-14 14:30:00,62.0,51.0,29.82,NW,315,4.0,5.0,67,0.00,,,0.01,,2013-04-14 21:30:00,
2013-04-14 14:40:00,62.7,51.0,29.82,WNW,282,6.0,6.0,66,0.00,,,0.01,,2013-04-14 21:40:00,
2013-04-14 14:50:00,61.3,50.0,29.81,WNW,300,4.0,8.0,66,0.00,,,0.01,,2013-04-14 21:50:00,
2013-04-14 15:00:00,60.5,50.0,29.81,WNW,296,10.0,12.0,68,0.00,,,0.01,,2013-04-14 22:00:00,
2013-04-14 15:10:00,58.7,49.0,29.80,WNW,290,8.0,8.0,70,0.00,,,0.01,,2013-04-14 22:10:00,
2013-04-14 15:20:00,56.2,47.0,29.80,NNW,327,13.0,15.0,72,0.00,,,0.01,,2013-04-14 22:20:00,
2013-04-14 15:30:00,54.8,47.0,29.80,WNW,295,8.0,13.0,75,0.00,,,0.01,,2013-04-14 22:30:00,
2013-04-14 15:40:00,55.1,47.0,29.79,WNW,300,11.0,14.0,75,0.00,,,0.01,,2013-04-14 22:40:00,
2013-04-14 15:50:00,55.3,47.0,29.79,NW,311,14.0,17.0,74,0.00,,,0.01,,2013-04-14 22:50:00,
2013-04-14 16:00:00,55.3,47.0,29.79,NW,321,14.0,14.0,74,0.00,,,0.01,,2013-04-14 23:00:00,
2013-04-14 16:10:00,55.5,47.0,29.78,NW,311,12.0,14.0,74,0.00,,,0.01,,2013-04-14 23:10:00,
2013-04-14 16:20:00,55.5,48.0,29.78,NW,315,6.0,11.0,75,0.00,,,0.01,,2013-04-14 23:20:00,
2013-04-14 16:30:00,55.4,47.0,29.78,WNW,292,12.0,12.0,74,0.00,,,0.01,,2013-04-14 23:30:00,
2013-04-14 16:40:00,56.0,48.0,29.78,NW,315,12.0,13.0,74,0.00,,,0.01,,2013-04-14 23:40:00,
2013-04-14 16:50:00,55.6,47.0,29.77,WNW,289,7.0,13.0,74,0.00,,,0.01,,2013-04-14 23:50:00,
2013-04-14 17:00:00,56.1,48.0,29.77,WNW,292,12.0,12.0,73,0.00,,,0.01,,2013-04-15 00:00:00,
2013-04-14 17:10:00,56.0,47.0,29.77,NW,317,7.0,12.0,73,0.00,,,0.01,,2013-04-15 00:10:00,
2013-04-14 17:20:00,56.1,48.0,29.77,NNW,337,11.0,11.0,73,0.00,,,0.01,,2013-04-15 00:20:00,
2013-04-14 17:30:00,55.2,47.0,29.77,WNW,292,8.0,15.0,74,0.00,,,0.01,,2013-04-15 00:30:00,
2013-04-14 17:40:00,54.6,47.0,29.77,WNW,289,9.0,16.0,75,0.00,,,0.01,,2013-04-15 00:40:00,
2013-04-14 17:50:00,54.7,47.0,29.77,West,281,8.0,13.0,76,0.00,,,0.01,,2013-04-15 00:50:00,
2013-04-14 18:00:00,54.7,47.0,29.77,NW,311,14.0,14.0,76,0.00,,,0.01,,2013-04-15 01:00:00,
2013-04-14 18:10:00,53.7,46.0,29.78,NW,304,14.0,15.0,76,0.00,,,0.01,,2013-04-15 01:10:00,
2013-04-14 18:20:00,53.4,46.0,29.78,WNW,292,8.0,14.0,76,0.00,,,0.01,,2013-04-15 01:20:00,
2013-04-14 18:30:00,53.8,46.0,29.78,WNW,286,6.0,11.0,75,0.00,,,0.01,,2013-04-15 01:30:00,
2013-04-14 18:40:00,53.9,46.0,29.77,WNW,292,10.0,10.0,75,0.00,,,0.01,,2013-04-15 01:40:00,
2013-04-14 18:50:00,54.0,46.0,29.77,NW,304,2.0,4.0,75,0.00,,,0.01,,2013-04-15 01:50:00,
2013-04-14 19:00:00,54.3,47.0,29.77,NW,304,2.0,4.0,76,0.00,,,0.01,,2013-04-15 02:00:00,
2013-04-14 19:10:00,54.0,46.0,29.78,WNW,300,7.0,9.0,75,0.00,,,0.01,,2013-04-15 02:10:00,
2013-04-14 19:20:00,53.1,46.0,29.78,NW,305,8.0,10.0,77,0.00,,,0.01,,2013-04-15 02:20:00,
2013-04-14 19:30:00,51.7,45.0,29.78,NW,309,9.0,13.0,77,0.00,,,0.01,,2013-04-15 02:30:00,
2013-04-14 19:40:00,50.8,45.0,29.78,NW,315,6.0,8.0,79,0.00,,,0.01,,2013-04-15 02:40:00,
2013-04-14 19:50:00,50.6,45.0,29.78,NW,317,5.0,7.0,80,0.00,,,0.01,,2013-04-15 02:50:00,
2013-04-14 20:00:00,50.5,45.0,29.79,NW,304,7.0,7.0,80,0.00,,,0.01,,2013-04-15 03:00:00,
2013-04-14 20:10:00,50.0,44.0,29.79,NW,315,2.0,4.0,81,0.00,,,0.01,,2013-04-15 03:10:00,
2013-04-14 20:20:00,49.8,44.0,29.80,NNW,334,4.0,4.0,81,0.00,,,0.01,,2013-04-15 03:20:00,
2013-04-14 20:30:00,49.5,44.0,29.80,NNW,330,2.0,3.0,82,0.00,,,0.01,,2013-04-15 03:30:00,
2013-04-14 20:40:00,49.7,44.0,29.80,NNW,330,3.0,3.0,82,0.00,,,0.01,,2013-04-15 03:40:00,
2013-04-14 20:50:00,49.7,44.0,29.81,NNW,330,1.0,2.0,82,0.00,,,0.01,,2013-04-15 03:50:00,
2013-04-14 21:00:00,49.5,45.0,29.81,NW,311,5.0,5.0,83,0.00,,,0.01,,2013-04-15 04:00:00,
2013-04-14 21:10:00,49.2,45.0,29.82,NW,316,5.0,7.0,84,0.00,,,0.01,,2013-04-15 04:10:00,
2013-04-14 21:20:00,49.3,45.0,29.82,WNW,302,1.0,4.0,84,0.00,,,0.01,,2013-04-15 04:20:00,
2013-04-14 21:30:00,49.0,45.0,29.82,WNW,292,7.0,10.0,85,0.00,,,0.01,,2013-04-15 04:30:00,
2013-04-14 21:40:00,48.6,45.0,29.82,NW,311,4.0,4.0,86,0.00,,,0.01,,2013-04-15 04:40:00,
2013-04-14 21:50:00,48.4,45.0,29.83,NW,321,4.0,4.0,87,0.00,,,0.01,,2013-04-15 04:50:00,
2013-04-14 22:00:00,48.1,45.0,29.83,NW,324,3.0,5.0,88,0.00,,,0.01,,2013-04-15 05:00:00,
2013-04-14 22:10:00,48.1,45.0,29.83,NW,316,5.0,6.0,88,0.00,,,0.01,,2013-04-15 05:10:00,
2013-04-14 22:20:00,48.1,45.0,29.84,NW,319,6.0,7.0,88,0.00,,,0.01,,2013-04-15 05:20:00,
2013-04-14 22:30:00,47.9,45.0,29.84,NNW,333,4.0,5.0,88,0.00,,,0.01,,2013-04-15 05:30:00,
2013-04-14 22:40:00,47.9,45.0,29.84,NW,323,5.0,5.0,88,0.00,,,0.01,,2013-04-15 05:40:00,
2013-04-14 22:50:00,48.2,45.0,29.84,WNW,298,6.0,7.0,88,0.00,,,0.01,,2013-04-15 05:50:00,
2013-04-14 23:00:00,48.3,45.0,29.84,WNW,289,10.0,10.0,88,0.00,,,0.01,,2013-04-15 06:00:00,
2013-04-14 23:10:00,48.0,45.0,29.84,NW,324,5.0,6.0,89,0.00,,,0.01,,2013-04-15 06:10:00,
2013-04-14 23:20:00,47.5,44.0,29.84,NNW,342,5.0,5.0,89,0.00,,,0.01,,2013-04-15 06:20:00,
2013-04-14 23:30:00,47.0,44.0,29.84,NNW,340,4.0,5.0,90,0.00,,,0.01,,2013-04-15 06:30:00,
2013-04-14 23:40:00,47.1,44.0,29.84,NW,323,4.0,5.0,90,0.00,,,0.01,,2013-04-15 06:40:00,
2013-04-14 23:50:00,47.3,45.0,29.84,NW,320,4.0,5.0,90,0.00,,,0.01,,2013-04-15 06:50:00,